Epoch 2019 Aug. 25.0 TT = JDT 2458720.5
T 2019 Aug. 26.09649 TT Williams
q 1.8067896 (2000.0) P Q
n 0.15631465 Peri. 212.95081 +0.99540903 -0.05923846
a 3.4129998 Node 150.17014 +0.07767747 +0.95889625
e 0.4706154 Incl. 8.69260 -0.05592028 +0.27750455
P 6.31
From 56 observations 2019 Aug. 27-Nov. 2, mean residual 0".5.